Lid_Strength_Index
2 2 3 3 3 2 2 1 1 1 0 1 0 1 1 1 1 1 1 2 2 2
2 2 2 2 2 1 1 2 1 1 2 1 1 1 1 1 2 1 1 2 2 2
2 2 2 2 2 2 1 2 2 1 2 2 1 1 1 1 1 1 1 1 2 2
7 3 1 2 1 1 2 2 2 2 2 2 2 3 2 1 2 2 2 3 3 3
8 7 4 1 1 1 2 2 2 2 3 3 3 3 3 3 4 4 4 3 4 3
6 5 5 3 2 4 3 3 4 3 4 4 4 4 4 4 4 4 4 3 4 4
7 7 5 5 5 5 4 5 5 5 4 4 5 5 5 5 5 5 6 6 6 6
8 8 8 7 6 7 6 6 6 6 7 6 6 7 7 7 7 7 7 7 8 8
8 9 9 9 9 8 8 7 7 7 7 8 10 12 9 8 7 7 7 7 8 9
9 9 9 10 9 10 9 9 9 9 9 10 10 9 9 9 7 7 7 7 8 9
10 9 10 10 10 10 10 10 10 10 10 10 10 9 9 10 9 9 9 9 9 9
10 10 10 10 10 9 9 9 9 10 9 10 10 8 8 9 10 10 11 11 10 10
11 11 11 11 11 11 11 10 12 11 10 11 10 8 8 9 13 11 13 11 10 10
12 11 12 11 11 11 11 11 11 11 11 11 11 10 8 8 11 12 12 12 12 12